Millville, NJ

7:57 AM EST on December 09, 2016 (GMT -0500)
Millville Municipal

Weather History for KMIV - February, 2014

Change the Weather History Date:

Thursday, February 27, 2014

  Actual Average Record
Temperature  
Mean Temperature 23 °F -  
Max Temperature 37 °F 47 °F 73 °F (1997)
Min Temperature 9 °F 26 °F 9 °F (1963)
Degree Days  
Heating Degree Days 42    
Moisture  
Dew Point 9 °F    
Average Humidity 56    
Maximum Humidity 88    
Minimum Humidity 31    
Precipitation  
Precipitation 0.00 in - - ()
Sea Level Pressure  
Sea Level Pressure 29.83 in    
Wind  
Wind Speed 6 mph (WNW)    
Max Wind Speed 23 mph    
Max Gust Speed 34 mph    
Visibility 10 miles    
Events Rain    
Averages and records for this station are not official NWS values.
T = Trace of Precipitation, MM = Missing Value Source: NWS Daily Summary

Daily Weather History Graph

Daily Weather History Graph

Search for Another Location

Airport or City:

Trip Planner

Search our weather history database for the weather conditions in past years. The results will help you decide how hot, cold, wet, or windy it might be!

Date:

Astronomy

Feb. 27, 2014 Rise Set
Actual Time 6:36 AM EST 5:50 PM EST
Civil Twilight 6:09 AM EST 6:17 PM EST
Nautical Twilight 5:38 AM EST 6:48 PM EST
Astronomical Twilight 5:06 AM EST 7:19 PM EST
Moon 5:06 AM EST (2/27) 4:13 PM EST (2/27)
Length of Visible Light 12h 08m
Length of Day
11h 14m
Waning Crescent, 4% of the Moon is Illuminated
Feb 27
Waning Crescent
Mar 1
New
Mar 8
First Quarter
Mar 16
Full
Mar 23
Last Quarter

Hourly Weather History & Observations

Time (EST) Temp. Windchill Dew Point Humidity Pressure Visibility Wind Dir Wind Speed Gust Speed Precip Events Conditions
12:54 AM 12.9 °F - 7.0 °F 77% 29.89 in 10.0 mi Calm Calm - N/A   Clear
1:54 AM 12.9 °F - 6.1 °F 74% 29.88 in 10.0 mi Calm Calm - N/A   Clear
2:54 AM 10.9 °F - 7.0 °F 84% 29.85 in 10.0 mi Calm Calm - N/A   Clear
3:54 AM 10.9 °F - 7.0 °F 84% 29.81 in 10.0 mi Calm Calm - N/A   Clear
4:54 AM 9.0 °F - 6.1 °F 88% 29.79 in 10.0 mi Calm Calm - N/A   Clear
5:54 AM 10.0 °F - 7.0 °F 87% 29.78 in 10.0 mi Calm Calm - N/A   Clear
6:54 AM 12.9 °F - 10.0 °F 88% 29.77 in 10.0 mi Calm Calm - N/A   Overcast
7:54 AM 19.9 °F - 12.9 °F 74% 29.76 in 10.0 mi Calm Calm - N/A   Overcast
8:54 AM 26.1 °F - 17.1 °F 69% 29.75 in 10.0 mi Calm Calm - N/A   Overcast
9:54 AM 32.0 °F 24.8 °F 17.1 °F 54% 29.73 in 10.0 mi SW 8.1 mph - N/A   Overcast
10:54 AM 35.1 °F 27.9 °F 19.9 °F 54% 29.70 in 10.0 mi SW 9.2 mph - 0.00 in Rain Light Rain
11:54 AM 37.0 °F 28.1 °F 21.0 °F 52% 29.68 in 10.0 mi WSW 15.0 mph 23.0 mph 0.00 in Rain Light Rain
12:54 PM 37.0 °F 26.4 °F 15.1 °F 41% 29.66 in 10.0 mi West 20.7 mph 31.1 mph 0.00 in Rain Light Rain
1:54 PM 37.0 °F 27.4 °F 10.9 °F 34% 29.67 in 10.0 mi WNW 17.3 mph 27.6 mph 0.00 in Rain Light Rain
2:54 PM 36.0 °F 25.6 °F 8.1 °F 31% 29.70 in 10.0 mi West 18.4 mph 31.1 mph 0.00 in Rain Light Rain
3:54 PM 35.1 °F 24.8 °F 8.1 °F 33% 29.73 in 10.0 mi WNW 17.3 mph 28.8 mph 0.00 in Rain Light Rain
4:54 PM 33.1 °F 23.9 °F 7.0 °F 34% 29.78 in 10.0 mi NW 12.7 mph - 0.00 in   Clear
5:54 PM 30.9 °F 19.8 °F 5.0 °F 33% 29.82 in 10.0 mi WNW 16.1 mph 25.3 mph 0.00 in   Clear
6:54 PM 30.0 °F 17.5 °F 5.0 °F 35% 29.87 in 10.0 mi WNW 19.6 mph 33.4 mph N/A   Clear
7:54 PM 27.0 °F 16.1 °F 10.0 °F 49% 29.94 in 10.0 mi WNW 12.7 mph 26.5 mph N/A   Clear
8:54 PM 24.1 °F 8.7 °F 6.1 °F 46% 29.99 in 10.0 mi NW 23.0 mph 34.5 mph N/A   Clear
9:54 PM 21.9 °F 6.5 °F 1.9 °F 42% 30.05 in 10.0 mi NNW 20.7 mph 33.4 mph N/A   Clear
10:54 PM 19.0 °F 7.5 °F -4.0 °F 36% 30.09 in 10.0 mi NW 10.4 mph 33.4 mph N/A   Clear
11:54 PM 17.1 °F 2.5 °F -6.0 °F 36% 30.13 in 10.0 mi NW 15.0 mph 26.5 mph N/A   Clear